�N����,����,�~����,�C��,���x,�C��,����,���ϕ���,�ő�u�ԕ���,�ő厞����,���˗�,�I�_���x,�n�����x,�ő啗���N��,DTYPE
"18/01/08","00:10",0.0,2.2,92.9,1014.7,281.8,1.7,2.4,304.8,0.00,1.2,5.3,"00:00:08",1
"18/01/08","00:20",0.0,2.4,92.8,1014.2,286.7,1.7,2.2,272.0,0.00,1.4,5.3,"00:12:24",1
"18/01/08","00:30",0.0,2.4,91.8,1014.2,304.3,2.1,2.9,319.3,0.00,1.2,5.4,"00:22:16",1
"18/01/08","00:40",0.0,2.3,92.4,1014.0,302.3,1.8,3.2,318.1,0.00,1.2,5.3,"00:39:20",1
"18/01/08","00:50",0.0,2.3,91.7,1014.0,321.8,2.2,3.3,325.2,0.00,1.1,5.4,"00:44:24",1
"18/01/08","01:00",0.0,2.0,92.2,1013.8,280.1,1.3,1.8,292.6,0.00,0.9,5.4,"00:59:36",1
"18/01/08","01:10",0.0,2.1,93.0,1014.2,292.2,1.6,2.4,310.9,0.00,1.1,5.4,"01:08:48",1
"18/01/08","01:20",0.0,2.3,92.4,1014.2,321.2,1.8,2.4,321.3,0.00,1.2,5.5,"01:15:20",1
"18/01/08","01:30",0.0,2.4,92.7,1014.0,319.3,1.6,2.6,324.3,0.00,1.4,5.1,"01:24:16",1
"18/01/08","01:40",0.0,2.4,92.3,1013.5,275.3,0.7,1.4,263.7,0.00,1.3,5.3,"01:39:36",1
"18/01/08","01:50",0.0,2.3,92.8,1014.0,296.4,1.6,2.6,317.9,0.00,1.3,5.3,"01:49:28",1
"18/01/08","02:00",0.0,2.3,93.4,1013.8,314.5,2.0,2.5,318.7,0.00,1.4,5.4,"01:54:00",1
"18/01/08","02:10",0.0,2.3,93.1,1014.2,294.2,1.7,2.4,316.0,0.00,1.3,5.2,"02:01:28",1
"18/01/08","02:20",0.0,2.4,93.3,1014.0,272.5,0.7,1.8,305.2,0.00,1.5,5.4,"02:10:56",1
"18/01/08","02:30",0.0,2.5,93.6,1013.8,300.3,1.0,2.4,317.8,0.00,1.6,5.4,"02:28:56",1
"18/01/08","02:40",0.0,2.5,94.0,1014.2,305.2,1.7,2.7,318.9,0.00,1.7,5.2,"02:30:02",1
"18/01/08","02:50",0.0,2.5,94.2,1014.0,301.9,1.5,2.4,318.3,0.00,1.7,5.5,"02:40:08",1
"18/01/08","03:00",0.0,2.4,94.4,1013.8,284.5,1.0,1.3,292.0,0.00,1.6,5.5,"02:58:32",1
"18/01/08","03:10",0.0,2.5,94.6,1013.8,297.0,1.1,1.3,289.2,0.00,1.8,5.5,"03:00:08",1
"18/01/08","03:20",0.0,2.7,94.1,1013.5,326.5,0.8,1.7,330.1,0.00,1.9,5.3,"03:12:24",1
"18/01/08","03:30",0.0,2.8,93.9,1013.3,275.1,1.1,1.4,267.9,0.00,2.0,5.5,"03:24:24",1
"18/01/08","03:40",0.0,2.8,93.8,1012.6,308.4,1.5,2.0,312.9,0.00,1.9,5.2,"03:33:52",1
"18/01/08","03:50",0.0,2.8,93.5,1012.8,297.6,1.6,2.2,315.0,0.00,1.9,5.6,"03:42:16",1
"18/01/08","04:00",0.0,2.7,94.0,1012.3,294.3,1.3,2.2,316.1,0.00,1.9,5.4,"03:57:36",1
"18/01/08","04:10",0.0,2.8,94.3,1012.8,311.4,1.6,2.2,318.8,0.00,2.0,5.4,"04:02:48",1
"18/01/08","04:20",0.0,2.8,94.2,1011.9,280.1,0.8,1.4,261.3,0.00,2.0,5.4,"04:18:16",1
"18/01/08","04:30",0.0,2.8,94.4,1012.1,295.3,1.5,2.0,312.7,0.00,2.0,5.3,"04:24:08",1
"18/01/08","04:40",0.0,3.0,94.2,1011.9,286.9,0.5,1.4,301.5,0.00,2.2,5.2,"04:30:56",1
"18/01/08","04:50",0.0,3.0,94.5,1012.1,304.4,1.3,2.1,315.8,0.00,2.2,5.4,"04:45:12",1
"18/01/08","05:00",0.0,3.1,94.2,1012.3,280.6,0.5,1.1,269.7,0.00,2.3,5.4,"04:58:56",1
"18/01/08","05:10",0.0,3.1,93.9,1012.6,291.1,1.5,1.7,304.3,0.00,2.3,5.5,"05:07:36",1
"18/01/08","05:20",0.0,3.2,93.7,1013.0,297.8,1.0,1.2,291.7,0.00,2.3,5.5,"05:10:32",1
"18/01/08","05:30",0.2,3.5,93.0,1012.8,313.8,1.6,3.2,318.3,0.00,2.5,5.7,"05:28:48",1
"18/01/08","05:40",0.0,3.4,93.6,1012.6,297.3,1.8,2.7,325.2,0.00,2.5,5.3,"05:30:32",1
"18/01/08","05:50",0.0,3.3,94.4,1012.3,270.7,1.3,1.7,248.1,0.00,2.5,5.3,"05:40:42",1
"18/01/08","06:00",0.2,3.4,94.9,1012.6,304.6,1.1,2.5,309.4,0.00,2.7,5.4,"05:59:24",1
"18/01/08","06:10",0.2,3.4,95.0,1012.3,322.8,3.1,4.3,322.4,0.00,2.7,5.7,"06:07:10",1
"18/01/08","06:20",0.4,3.3,95.6,1012.3,296.3,2.3,3.3,317.8,0.00,2.7,5.4,"06:10:08",1
"18/01/08","06:30",0.2,3.4,96.5,1011.6,284.2,1.7,1.8,296.4,0.00,2.9,5.5,"06:20:32",1
"18/01/08","06:40",0.0,3.6,96.7,1012.1,283.9,1.8,2.8,300.5,0.00,3.2,5.5,"06:38:16",1
"18/01/08","06:50",0.0,3.7,96.7,1012.1,319.8,2.3,3.1,321.0,0.00,3.3,5.5,"06:45:28",1
"18/01/08","07:00",0.0,3.7,97.0,1011.9,298.8,1.0,2.0,320.0,0.00,3.3,5.5,"06:52:08",1
"18/01/08","07:10",0.2,3.7,97.4,1012.3,306.3,1.2,2.2,320.4,0.00,3.4,5.3,"07:06:16",1
"18/01/08","07:20",0.2,3.7,97.5,1012.3,323.0,1.8,2.4,330.8,0.00,3.4,5.6,"07:13:36",1
"18/01/08","07:30",0.4,3.7,97.8,1012.6,323.6,2.0,2.8,326.5,0.00,3.4,5.3,"07:27:34",1
"18/01/08","07:40",0.2,3.7,98.1,1012.8,301.8,1.1,1.8,311.3,0.00,3.5,5.4,"07:30:16",1
"18/01/08","07:50",0.2,3.9,97.4,1012.3,332.9,0.6,1.7,310.4,0.00,3.6,5.4,"07:49:30",1
"18/01/08","08:00",0.2,3.8,98.3,1012.3,320.2,1.2,2.0,322.7,0.00,3.6,5.6,"07:50:48",1
"18/01/08","08:10",0.4,4.1,97.9,1011.9,331.7,1.2,2.0,315.8,0.00,3.8,5.6,"08:08:34",1
"18/01/08","08:20",0.0,4.2,98.8,1011.6,291.8,1.5,2.0,270.8,0.00,4.1,5.7,"08:19:20",1
"18/01/08","08:30",0.0,4.7,98.1,1012.1,274.7,1.5,2.0,250.1,0.00,4.5,5.8,"08:20:08",1
"18/01/08","08:40",0.2,4.8,98.0,1011.6,272.3,0.7,1.6,279.0,0.00,4.6,5.7,"08:30:48",1
"18/01/08","08:50",0.2,4.9,97.7,1011.4,353.8,0.5,1.3,36.0,0.03,4.6,5.6,"08:48:04",1
"18/01/08","09:00",0.0,4.9,98.7,1011.4,294.8,0.5,1.1,293.5,0.03,4.8,5.6,"08:53:00",1
"18/01/08","09:10",0.0,5.3,97.7,1011.4,307.3,1.3,2.0,324.9,0.05,5.0,5.8,"09:08:34",1
"18/01/08","09:20",0.0,5.2,98.3,1010.4,315.2,1.6,2.6,308.5,0.05,5.0,5.7,"09:19:48",1
"18/01/08","09:30",0.0,5.4,97.6,1010.7,310.7,1.8,2.2,304.5,0.05,5.1,5.8,"09:20:16",1
"18/01/08","09:40",0.0,5.4,98.2,1010.9,264.2,1.5,2.0,244.5,0.02,5.2,5.7,"09:36:22",1
"18/01/08","09:50",0.0,5.8,97.3,1009.7,265.6,0.8,1.2,231.0,0.04,5.4,6.1,"09:40:08",1
"18/01/08","10:00",0.0,5.8,97.9,1010.2,281.3,1.2,1.9,317.6,0.03,5.5,5.9,"09:58:56",1
"18/01/08","10:10",0.0,5.9,97.6,1010.2,300.9,1.2,1.7,317.4,0.03,5.6,6.1,"10:00:24",1
"18/01/08","10:20",0.0,5.9,97.6,1009.5,324.3,1.6,2.7,322.3,0.03,5.6,6.2,"10:19:20",1
"18/01/08","10:30",0.0,5.9,97.9,1009.5,305.4,2.0,2.8,320.1,0.02,5.6,6.2,"10:21:04",1
"18/01/08","10:40",0.0,6.1,97.9,1008.6,293.7,1.6,2.2,309.0,0.01,5.8,6.2,"10:34:16",1
"18/01/08","10:50",0.2,6.0,97.7,1009.0,285.1,1.7,2.0,302.1,0.02,5.7,6.2,"10:40:08",1
"18/01/08","11:00",0.0,6.3,97.6,1008.6,277.2,1.2,2.2,262.0,0.01,6.0,6.2,"10:51:04",1
"18/01/08","11:10",0.0,6.4,97.6,1008.3,327.7,1.6,2.6,319.8,0.00,6.1,6.2,"11:00:02",1
"18/01/08","11:20",0.0,6.4,97.7,1008.1,298.0,1.3,2.4,319.8,0.01,6.1,6.2,"11:10:24",1
"18/01/08","11:30",0.0,6.6,97.9,1008.1,274.9,1.2,2.0,294.8,0.01,6.3,6.3,"11:22:56",1
"18/01/08","11:40",0.2,6.7,97.6,1007.8,280.0,1.2,1.7,276.8,0.01,6.4,6.3,"11:34:08",1
"18/01/08","11:50",0.0,6.8,97.8,1007.1,296.2,1.2,1.8,317.2,0.01,6.5,6.4,"11:42:40",1
"18/01/08","12:00",0.0,6.9,97.8,1006.9,286.5,1.1,2.0,321.8,0.01,6.6,6.3,"11:50:02",1
"18/01/08","12:10",0.2,6.9,97.8,1006.4,302.5,1.0,2.2,325.8,0.01,6.6,6.3,"12:00:08",1
"18/01/08","12:20",0.2,6.9,97.8,1006.4,305.5,1.5,1.9,318.3,0.00,6.6,6.5,"12:17:28",1
"18/01/08","12:30",0.4,6.9,97.9,1005.7,338.1,0.8,1.8,315.4,0.00,6.6,6.2,"12:20:16",1
"18/01/08","12:40",0.2,7.0,97.9,1005.2,335.4,1.3,2.2,337.4,0.02,6.7,6.7,"12:38:24",1
"18/01/08","12:50",0.2,7.2,98.3,1005.7,278.4,0.8,1.4,307.7,0.03,7.0,6.6,"12:44:48",1
"18/01/08","13:00",0.0,7.8,97.4,1005.2,222.4,0.7,1.8,237.1,0.03,7.5,6.6,"12:53:44",1
"18/01/08","13:10",0.0,8.1,97.5,1004.8,270.2,0.7,1.6,318.6,0.04,7.8,6.7,"13:08:48",1
"18/01/08","13:20",0.2,8.1,96.9,1005.0,290.1,1.1,1.6,300.0,0.02,7.7,6.8,"13:18:48",1
"18/01/08","13:30",0.0,8.0,97.3,1004.5,270.9,0.8,1.8,249.4,0.01,7.6,6.7,"13:20:48",1
"18/01/08","13:40",0.0,8.1,97.1,1004.5,284.6,1.0,1.7,297.9,0.00,7.7,6.5,"13:36:32",1
"18/01/08","13:50",0.2,7.9,97.5,1003.6,249.7,0.8,1.4,266.0,0.01,7.6,6.9,"13:41:04",1
"18/01/08","14:00",0.2,8.1,97.4,1003.4,291.0,1.2,2.0,304.6,0.00,7.8,6.7,"13:59:12",1
"18/01/08","14:10",0.0,8.1,97.6,1004.1,285.5,1.0,1.8,260.3,0.00,7.8,6.7,"14:04:48",1
"18/01/08","14:20",0.0,8.2,97.7,1003.8,266.4,1.1,2.0,307.3,0.01,7.9,6.7,"14:18:16",1
"18/01/08","14:30",0.4,8.2,97.8,1003.4,307.6,1.0,1.4,317.4,0.00,7.9,6.7,"14:27:04",1
"18/01/08","14:40",0.0,8.2,97.8,1003.4,292.4,1.3,1.8,279.0,0.00,7.9,7.0,"14:32:08",1
"18/01/08","14:50",0.0,8.2,98.0,1002.9,301.4,1.1,1.6,318.7,0.00,7.9,6.9,"14:40:56",1
"18/01/08","15:00",0.0,8.3,97.3,1002.9,286.9,1.0,1.9,308.2,0.00,7.9,6.9,"14:52:40",1
"18/01/08","15:10",0.2,8.2,98.1,1003.1,286.3,1.0,1.4,304.6,0.00,8.0,6.9,"15:08:00",1
"18/01/08","15:20",0.0,8.4,97.5,1002.6,277.4,1.3,2.0,268.7,0.00,8.1,7.0,"15:15:52",1
"18/01/08","15:30",0.2,8.4,98.0,1002.9,306.8,1.5,2.2,313.2,0.00,8.1,6.8,"15:22:56",1
"18/01/08","15:40",0.2,8.6,97.5,1003.1,275.5,0.6,1.3,307.8,0.00,8.3,7.0,"15:37:20",1
"18/01/08","15:50",0.0,8.5,98.3,1002.4,302.2,0.8,1.6,320.9,0.00,8.3,7.1,"15:41:12",1
"18/01/08","16:00",0.0,8.7,97.6,1002.6,292.1,1.2,1.8,308.5,0.00,8.4,7.1,"15:57:12",1
"18/01/08","16:10",0.0,8.5,98.4,1002.9,297.7,1.2,1.8,316.0,0.00,8.3,7.0,"16:00:08",1
"18/01/08","16:20",0.0,8.7,97.8,1002.6,337.0,0.8,1.9,319.2,0.00,8.4,6.9,"16:19:52",1
"18/01/08","16:30",0.0,8.5,98.3,1002.6,314.2,1.2,1.8,325.7,0.00,8.3,7.0,"16:27:04",1
"18/01/08","16:40",0.2,8.6,98.0,1002.6,315.7,1.0,1.7,292.3,0.00,8.3,7.0,"16:36:40",1
"18/01/08","16:50",0.0,8.6,97.8,1002.6,339.1,0.7,1.4,348.2,0.00,8.3,7.1,"16:43:44",1
"18/01/08","17:00",0.2,8.4,98.5,1001.7,284.4,0.8,1.7,307.1,0.00,8.2,6.9,"16:59:36",1
"18/01/08","17:10",0.0,8.4,98.0,1001.9,310.4,1.3,2.1,319.9,0.00,8.1,7.0,"17:08:40",1
"18/01/08","17:20",0.2,8.4,98.1,1001.7,306.3,1.2,1.8,300.7,0.00,8.2,7.2,"17:17:12",1
"18/01/08","17:30",0.0,8.4,98.2,1002.2,290.8,0.8,1.6,277.5,0.00,8.2,7.1,"17:28:16",1
"18/01/08","17:40",0.0,8.4,98.0,1001.9,343.5,1.0,1.9,328.0,0.00,8.1,7.1,"17:30:02",1
"18/01/08","17:50",0.0,8.3,98.2,1001.5,328.5,1.2,1.9,331.5,0.00,8.1,7.1,"17:40:56",1
"18/01/08","18:00",0.0,8.3,98.1,1001.5,286.9,0.7,1.2,312.7,0.00,8.1,7.2,"17:53:04",1
"18/01/08","18:10",0.0,8.3,98.4,1001.0,283.6,0.8,1.2,256.5,0.00,8.1,7.1,"18:03:52",1
"18/01/08","18:20",0.0,8.3,98.4,1001.2,331.9,1.1,1.7,328.1,0.00,8.1,6.9,"18:12:32",1
"18/01/08","18:30",0.2,8.2,98.2,1000.8,290.0,0.8,1.4,314.3,0.00,8.0,7.2,"18:20:32",1
"18/01/08","18:40",0.0,8.1,98.3,1000.8,325.3,1.1,1.4,327.7,0.00,7.9,7.2,"18:37:52",1
"18/01/08","18:50",0.0,8.2,98.3,1000.5,338.7,1.1,1.7,320.5,0.00,8.0,7.3,"18:47:28",1
"18/01/08","19:00",0.2,8.2,98.5,1001.0,327.7,0.6,1.2,344.3,0.00,8.0,7.1,"18:50:32",1
"18/01/08","19:10",0.0,8.1,98.4,1000.3,322.1,0.8,1.2,322.5,0.00,7.9,7.2,"19:08:38",1
"18/01/08","19:20",0.2,8.1,98.7,1000.3,322.7,1.1,1.3,324.0,0.00,7.9,7.1,"19:11:52",1
"18/01/08","19:30",0.0,8.1,98.7,999.8,331.9,0.7,1.1,318.4,0.00,7.9,7.1,"19:26:00",1
"18/01/08","19:40",0.0,8.1,98.5,999.3,316.4,0.6,1.0,331.1,0.00,7.9,7.1,"19:31:28",1
"18/01/08","19:50",0.0,8.0,98.7,999.8,312.4,0.7,1.2,304.6,0.00,7.8,7.1,"19:43:28",1
"18/01/08","20:00",0.2,8.1,98.9,999.1,332.3,0.7,1.2,282.5,0.00,8.0,7.2,"19:55:20",1
"18/01/08","20:10",0.0,8.1,98.8,999.6,289.1,0.7,0.9,263.3,0.00,8.0,7.2,"20:01:28",1
"18/01/08","20:20",0.4,8.1,98.9,999.1,351.4,0.5,1.1,324.0,0.00,8.0,7.2,"20:10:02",1
"18/01/08","20:30",0.2,8.0,98.8,999.6,323.6,1.0,1.3,321.3,0.00,7.9,7.1,"20:24:56",1
"18/01/08","20:40",0.2,7.9,98.8,999.3,315.6,0.7,1.1,313.3,0.00,7.8,7.0,"20:30:32",1
"18/01/08","20:50",0.0,8.0,99.1,999.3,299.8,0.6,1.0,344.2,0.00,7.9,7.0,"20:47:52",1
"18/01/08","21:00",0.2,8.0,98.9,998.9,307.1,0.6,1.0,345.8,0.00,7.9,7.2,"20:50:48",1
"18/01/08","21:10",0.2,8.0,99.0,998.4,279.2,0.6,0.9,264.9,0.00,7.9,7.1,"21:05:12",1
"18/01/08","21:20",0.0,8.0,99.1,997.9,313.2,0.7,1.0,281.5,0.00,7.9,7.1,"21:17:12",1
"18/01/08","21:30",0.0,8.0,99.1,998.2,326.0,1.3,1.8,335.4,0.00,7.9,7.2,"21:23:44",1
"18/01/08","21:40",0.0,8.0,99.1,997.7,312.5,1.0,1.6,314.6,0.00,7.9,7.3,"21:33:36",1
"18/01/08","21:50",0.0,8.0,99.1,997.7,321.6,0.2,1.1,330.2,0.00,7.9,7.2,"21:40:02",1
"18/01/08","22:00",0.0,8.0,99.1,997.2,332.5,0.8,1.3,303.2,0.00,7.9,7.1,"21:54:00",1
"18/01/08","22:10",0.4,8.0,99.0,997.4,314.7,0.8,1.4,329.3,0.00,7.9,7.2,"22:05:20",1
"18/01/08","22:20",0.2,8.0,99.2,997.4,305.7,0.7,1.3,319.5,0.00,7.9,7.2,"22:17:04",1
"18/01/08","22:30",0.2,8.1,99.2,997.4,317.2,0.7,1.1,307.3,0.00,8.0,7.2,"22:20:16",1
"18/01/08","22:40",0.4,8.1,99.2,997.2,15.3,0.3,1.3,321.1,0.00,8.0,7.2,"22:39:20",1
"18/01/08","22:50",0.2,8.1,99.3,996.5,334.1,0.7,1.2,330.9,0.00,8.0,7.1,"22:40:08",1
"18/01/08","23:00",0.2,8.1,99.2,997.0,328.4,1.1,1.6,323.3,0.00,8.0,7.3,"22:56:00",1
"18/01/08","23:10",0.2,8.2,99.2,996.3,331.1,0.7,1.9,336.2,0.00,8.1,7.4,"23:04:40",1
"18/01/08","23:20",0.2,8.2,99.2,996.3,319.1,0.6,0.9,310.0,0.00,8.1,7.0,"23:12:48",1
"18/01/08","23:30",0.4,8.1,99.2,996.5,317.3,1.1,1.6,321.8,0.00,8.0,7.4,"23:28:24",1
"18/01/08","23:40",0.2,8.2,99.3,996.5,305.4,1.0,1.4,329.6,0.00,8.1,7.3,"23:35:12",1
"18/01/08","23:50",0.2,8.2,99.2,996.5,148.1,0.3,1.3,304.5,0.00,8.1,7.2,"23:40:16",1
"18/01/08","24:00",0.2,8.3,99.3,996.5,105.5,0.1,0.6,32.3,0.00,8.2,7.3,"23:58:08",1
